• In Uzbekistan
  • List of Countries
  • For 7 days
  • Water Temperature
  • Satellite Maps
  • Weather Map
  • Weather Widgets
  • user-avatar
    Login

    Hourly Weather Serpy

    Today, 25 September, Tuesday

    Time Temperature Precipitation Wind Pressure Humidity
    00:00 +11°C° 0 mm 6 mps 741 mmHg 58%
    01:00 +11°C° 0.1 mm 6 mps 740 mmHg 58%
    02:00 +11°C° 0.1 mm 6 mps 739 mmHg 59%
    03:00 +12°C° 0 mm 5 mps 738 mmHg 62%
    04:00 +11°C° 0.2 mm 6 mps 738 mmHg 66%
    05:00 +10°C° 0.2 mm 6 mps 738 mmHg 69%
    06:00 +10°C° 0.2 mm 7 mps 737 mmHg 73%
    07:00 +10°C° 0.8 mm 6 mps 737 mmHg 78%
    08:00 +10°C° 0.8 mm 5 mps 737 mmHg 83%
    09:00 +10°C° 0 mm 5 mps 737 mmHg 88%
    10:00 +10°C° 0.2 mm 5 mps 737 mmHg 85%
    11:00 +12°C° 0.2 mm 5 mps 738 mmHg 81%
    12:00 +12°C° 0.2 mm 5 mps 738 mmHg 77%
    13:00 +12°C° 0 mm 5 mps 738 mmHg 74%
    14:00 +12°C° 0 mm 5 mps 739 mmHg 71%
    15:00 +12°C° 0 mm 5 mps 740 mmHg 68%
    16:00 +10°C° 0 mm 5 mps 740 mmHg 70%
    17:00 +11°C° 0 mm 4 mps 741 mmHg 72%
    18:00 +10°C° 0 mm 3 mps 741 mmHg 74%
    19:00 +10°C° 0 mm 3 mps 742 mmHg 76%
    20:00 +9°C° 0 mm 3 mps 742 mmHg 79%
    21:00 +7°C° 0 mm 4 mps 743 mmHg 81%
    22:00 +7°C° 0 mm 4 mps 743 mmHg 82%
    23:00 +6°C° 0 mm 4 mps 744 mmHg 83%

    Tomorrow, 26 September, Wednesday

    Time Temperature Precipitation Wind Pressure Humidity
    00:00 +6°C° 0 mm 4 mps 744 mmHg 84%
    01:00 +5°C° 0 mm 4 mps 745 mmHg 85%
    02:00 +5°C° 0 mm 4 mps 745 mmHg 86%
    03:00 +4°C° 0 mm 3 mps 745 mmHg 86%
    04:00 +4°C° 0 mm 3 mps 746 mmHg 87%
    05:00 +4°C° 0 mm 4 mps 746 mmHg 87%
    06:00 +4°C° 0 mm 4 mps 747 mmHg 88%
    07:00 +5°C° 0 mm 4 mps 747 mmHg 84%
    08:00 +6°C° 0 mm 4 mps 748 mmHg 79%
    09:00 +7°C° 0 mm 4 mps 749 mmHg 75%
    10:00 +8°C° 0 mm 4 mps 749 mmHg 70%
    11:00 +10°C° 0 mm 4 mps 749 mmHg 64%
    12:00 +11°C° 0 mm 4 mps 750 mmHg 59%
    13:00 +11°C° 0 mm 4 mps 750 mmHg 57%
    14:00 +11°C° 0 mm 4 mps 750 mmHg 56%
    15:00 +11°C° 0 mm 4 mps 750 mmHg 54%
    16:00 +10°C° 0 mm 4 mps 750 mmHg 57%
    17:00 +10°C° 0 mm 3 mps 750 mmHg 59%
    18:00 +9°C° 0 mm 3 mps 751 mmHg 62%
    19:00 +8°C° 0 mm 3 mps 751 mmHg 63%
    20:00 +8°C° 0 mm 3 mps 751 mmHg 64%
    21:00 +7°C° 0 mm 2 mps 751 mmHg 66%
    22:00 +7°C° 0 mm 3 mps 751 mmHg 68%
    23:00 +5°C° 0 mm 3 mps 751 mmHg 70%

    Day after tomorrow, 27 September, Thursday

    Time Temperature Precipitation Wind Pressure Humidity
    00:00 +5°C° 0 mm 3 mps 751 mmHg 73%
    01:00 +4°C° 0 mm 4 mps 750 mmHg 73%
    02:00 +4°C° 0 mm 4 mps 750 mmHg 73%
    03:00 +4°C° 0 mm 4 mps 749 mmHg 73%
    04:00 +3°C° 0 mm 5 mps 749 mmHg 71%
    05:00 +3°C° 0 mm 5 mps 748 mmHg 69%
    06:00 +3°C° 0 mm 6 mps 747 mmHg 67%
    07:00 +4°C° 0 mm 7 mps 747 mmHg 65%
    08:00 +5°C° 0 mm 8 mps 746 mmHg 63%
    09:00 +5°C° 0 mm 9 mps 745 mmHg 62%
    10:00 +5°C° 0.8 mm 9 mps 745 mmHg 64%
    11:00 +5°C° 0.8 mm 10 mps 744 mmHg 67%
    12:00 +5°C° 0.8 mm 10 mps 743 mmHg 69%
    13:00 +5°C° 1 mm 10 mps 743 mmHg 72%
    14:00 +5°C° 1 mm 10 mps 742 mmHg 76%
    15:00 +5°C° 1 mm 10 mps 742 mmHg 79%
    16:00 +5°C° 0.5 mm 10 mps 741 mmHg 81%
    17:00 +5°C° 0.5 mm 9 mps 741 mmHg 82%
    18:00 +6°C° 0.5 mm 9 mps 741 mmHg 84%
    19:00 +6°C° 0.3 mm 8 mps 741 mmHg 84%
    20:00 +7°C° 0.3 mm 8 mps 741 mmHg 84%
    21:00 +8°C° 0.3 mm 7 mps 741 mmHg 84%
    22:00 +7°C° 0.1 mm 6 mps 742 mmHg 86%
    23:00 +7°C° 0.1 mm 6 mps 742 mmHg 87%

    28 September, Friday

    Time Temperature Precipitation Wind Pressure Humidity
    00:00 +6°C° 0.1 mm 5 mps 742 mmHg 88%
    01:00 +6°C° 0 mm 5 mps 743 mmHg 89%
    02:00 +6°C° 0 mm 5 mps 743 mmHg 90%
    03:00 +5°C° 0 mm 4 mps 743 mmHg 91%
    04:00 +5°C° 0 mm 4 mps 743 mmHg 92%
    05:00 +5°C° 0 mm 4 mps 744 mmHg 92%
    06:00 +5°C° 0 mm 4 mps 744 mmHg 93%
    07:00 +6°C° 0 mm 4 mps 744 mmHg 88%
    08:00 +7°C° 0 mm 5 mps 744 mmHg 82%
    09:00 +8°C° 0 mm 5 mps 744 mmHg 76%
    10:00 +10°C° 0 mm 6 mps 744 mmHg 69%
    11:00 +11°C° 0 mm 6 mps 744 mmHg 61%
    12:00 +14°C° 0 mm 7 mps 744 mmHg 54%
    13:00 +14°C° 0 mm 7 mps 743 mmHg 54%
    14:00 +15°C° 0 mm 8 mps 743 mmHg 54%
    15:00 +15°C° 0 mm 8 mps 742 mmHg 54%
    16:00 +13°C° 0 mm 8 mps 742 mmHg 57%
    17:00 +14°C° 0 mm 7 mps 741 mmHg 60%
    18:00 +12°C° 0 mm 7 mps 741 mmHg 63%
    19:00 +12°C° 0 mm 7 mps 741 mmHg 65%
    20:00 +12°C° 0 mm 7 mps 740 mmHg 67%
    21:00 +12°C° 0 mm 8 mps 740 mmHg 69%
    22:00 +12°C° 0 mm 8 mps 740 mmHg 71%
    23:00 +12°C° 0 mm 8 mps 740 mmHg 74%

    29 September, Saturday

    Time Temperature Precipitation Wind Pressure Humidity
    00:00 +13°C° 0 mm 8 mps 740 mmHg 76%
    01:00 +12°C° 0.2 mm 8 mps 740 mmHg 76%
    02:00 +11°C° 0.2 mm 7 mps 741 mmHg 77%
    03:00 +10°C° 0.2 mm 6 mps 742 mmHg 77%
    04:00 +9°C° 0 mm 5 mps 743 mmHg 78%
    05:00 +7°C° 0 mm 5 mps 744 mmHg 78%
    06:00 +5°C° 0 mm 4 mps 744 mmHg 78%
    07:00 +6°C° 0 mm 4 mps 745 mmHg 73%
    08:00 +7°C° 0 mm 3 mps 746 mmHg 68%
    09:00 +7°C° 0 mm 3 mps 747 mmHg 63%
    10:00 +8°C° 0 mm 3 mps 747 mmHg 55%
    11:00 +9°C° 0 mm 3 mps 747 mmHg 48%
    12:00 +10°C° 0 mm 3 mps 748 mmHg 41%
    13:00 +10°C° 0 mm 3 mps 748 mmHg 40%
    14:00 +11°C° 0 mm 3 mps 748 mmHg 40%
    15:00 +11°C° 0 mm 3 mps 748 mmHg 40%
    16:00 +10°C° 0 mm 3 mps 748 mmHg 43%
    17:00 +10°C° 0 mm 2 mps 748 mmHg 46%
    18:00 +9°C° 0 mm 2 mps 748 mmHg 49%
    19:00 +8°C° 0 mm 2 mps 749 mmHg 51%
    20:00 +8°C° 0 mm 2 mps 749 mmHg 52%
    21:00 +8°C° 0 mm 2 mps 750 mmHg 54%
    22:00 +8°C° 0 mm 2 mps 750 mmHg 56%
    23:00 +7°C° 0 mm 2 mps 750 mmHg 57%

    30 September, Sunday

    Time Temperature Precipitation Wind Pressure Humidity
    00:00 +7°C° 0 mm 2 mps 751 mmHg 59%
    01:00 +7°C° 0 mm 2 mps 751 mmHg 62%
    02:00 +7°C° 0 mm 2 mps 751 mmHg 64%
    03:00 +7°C° 0 mm 3 mps 752 mmHg 66%
    04:00 +6°C° 0 mm 2 mps 752 mmHg 69%
    05:00 +5°C° 0 mm 2 mps 752 mmHg 71%
    06:00 +5°C° 0 mm 2 mps 753 mmHg 74%
    07:00 +5°C° 0 mm 3 mps 753 mmHg 69%
    08:00 +5°C° 0 mm 3 mps 753 mmHg 64%
    09:00 +7°C° 0 mm 3 mps 754 mmHg 59%
    10:00 +8°C° 0 mm 3 mps 754 mmHg 53%
    11:00 +9°C° 0 mm 3 mps 754 mmHg 47%
    12:00 +10°C° 0 mm 3 mps 754 mmHg 42%
    13:00 +10°C° 0 mm 3 mps 754 mmHg 40%
    14:00 +10°C° 0 mm 3 mps 754 mmHg 39%
    15:00 +10°C° 0 mm 3 mps 754 mmHg 38%
    16:00 +9°C° 0 mm 2 mps 754 mmHg 41%
    17:00 +8°C° 0 mm 2 mps 754 mmHg 45%
    18:00 +8°C° 0 mm 1 mps 754 mmHg 49%
    19:00 +7°C° 0 mm 1 mps 754 mmHg 50%
    20:00 +7°C° 0 mm 1 mps 754 mmHg 52%
    21:00 +6°C° 0 mm 1 mps 754 mmHg 53%
    22:00 +6°C° 0 mm 1 mps 755 mmHg 54%
    23:00 +5°C° 0 mm 0 mps 755 mmHg 55%
    Show more